• In Moldova, Republic
  • List of Countries
  • For 7 days
  • Water Temperature
  • Satellite Maps
  • Weather Map
  • Weather Widgets
  • user-avatar
    Login

    Hourly Weather Quito

    Today, 28 May, Sunday

    Time Temperature Precipitation Wind Pressure Humidity
    00:00 +18°C° 0 mm 1 mps 624 mmHg 80%
    01:00 +16°C° 0 mm 1 mps 624 mmHg 81%
    02:00 +16°C° 0 mm 1 mps 624 mmHg 83%
    03:00 +15°C° 0 mm 1 mps 623 mmHg 84%
    04:00 +15°C° 0 mm 1 mps 623 mmHg 85%
    05:00 +16°C° 0 mm 1 mps 624 mmHg 84%
    06:00 +16°C° 0 mm 1 mps 624 mmHg 83%
    07:00 +16°C° 0 mm 1 mps 624 mmHg 83%
    08:00 +19°C° 0.1 mm 1 mps 625 mmHg 73%
    09:00 +21°C° 0.1 mm 2 mps 626 mmHg 63%
    10:00 +24°C° 0.1 mm 3 mps 627 mmHg 53%
    11:00 +25°C° 0.2 mm 3 mps 627 mmHg 49%
    12:00 +25°C° 0.2 mm 3 mps 626 mmHg 45%
    13:00 +26°C° 0.2 mm 2 mps 626 mmHg 41%
    14:00 +26°C° 0.1 mm 2 mps 626 mmHg 45%
    15:00 +25°C° 0.1 mm 2 mps 625 mmHg 48%
    16:00 +24°C° 0.1 mm 1 mps 624 mmHg 51%
    17:00 +22°C° 0.1 mm 1 mps 624 mmHg 58%
    18:00 +20°C° 0.1 mm 1 mps 624 mmHg 64%
    19:00 +18°C° 0.1 mm 1 mps 623 mmHg 70%
    20:00 +18°C° 0.1 mm 1 mps 623 mmHg 72%
    21:00 +16°C° 0.1 mm 1 mps 623 mmHg 75%
    22:00 +15°C° 0.1 mm 1 mps 623 mmHg 77%
    23:00 +15°C° 0 mm 1 mps 623 mmHg 77%

    Tomorrow, 29 May, Monday

    Time Temperature Precipitation Wind Pressure Humidity
    00:00 +15°C° 0 mm 1 mps 623 mmHg 77%
    01:00 +15°C° 0 mm 1 mps 623 mmHg 78%
    02:00 +15°C° 0 mm 1 mps 623 mmHg 77%
    03:00 +16°C° 0 mm 1 mps 623 mmHg 77%
    04:00 +16°C° 0 mm 1 mps 623 mmHg 77%
    05:00 +16°C° 0 mm 1 mps 623 mmHg 78%
    06:00 +16°C° 0 mm 1 mps 624 mmHg 78%
    07:00 +16°C° 0 mm 1 mps 624 mmHg 78%
    08:00 +18°C° 0 mm 2 mps 625 mmHg 66%
    09:00 +21°C° 0 mm 3 mps 626 mmHg 54%
    10:00 +23°C° 0 mm 4 mps 627 mmHg 42%
    11:00 +25°C° 0 mm 3 mps 627 mmHg 39%
    12:00 +26°C° 0 mm 3 mps 627 mmHg 35%
    13:00 +27°C° 0 mm 3 mps 627 mmHg 31%
    14:00 +27°C° 0 mm 3 mps 626 mmHg 33%
    15:00 +26°C° 0 mm 2 mps 626 mmHg 34%
    16:00 +26°C° 0 mm 2 mps 625 mmHg 35%
    17:00 +24°C° 0 mm 2 mps 625 mmHg 39%
    18:00 +21°C° 0 mm 2 mps 625 mmHg 44%
    19:00 +19°C° 0 mm 2 mps 624 mmHg 49%
    20:00 +18°C° 0 mm 2 mps 625 mmHg 49%
    21:00 +19°C° 0 mm 1 mps 625 mmHg 49%
    22:00 +19°C° 0 mm 1 mps 625 mmHg 49%
    23:00 +19°C° 0 mm 1 mps 625 mmHg 48%

    Day after tomorrow, 30 May, Tuesday

    Time Temperature Precipitation Wind Pressure Humidity
    00:00 +19°C° 0 mm 1 mps 625 mmHg 47%
    01:00 +19°C° 0 mm 1 mps 625 mmHg 47%
    02:00 +18°C° 0 mm 1 mps 625 mmHg 48%
    03:00 +16°C° 0 mm 1 mps 624 mmHg 50%
    04:00 +15°C° 0 mm 1 mps 624 mmHg 51%
    05:00 +15°C° 0 mm 1 mps 624 mmHg 52%
    06:00 +15°C° 0 mm 1 mps 624 mmHg 53%
    07:00 +15°C° 0 mm 1 mps 625 mmHg 55%
    08:00 +18°C° 0 mm 2 mps 626 mmHg 48%
    09:00 +20°C° 0 mm 3 mps 627 mmHg 41%
    10:00 +23°C° 0 mm 4 mps 628 mmHg 34%
    11:00 +25°C° 0 mm 3 mps 628 mmHg 33%
    12:00 +25°C° 0 mm 3 mps 627 mmHg 31%
    13:00 +26°C° 0 mm 3 mps 627 mmHg 30%
    14:00 +26°C° 0 mm 3 mps 627 mmHg 31%
    15:00 +26°C° 0 mm 3 mps 626 mmHg 32%
    16:00 +26°C° 0 mm 2 mps 626 mmHg 33%
    17:00 +23°C° 0 mm 2 mps 625 mmHg 39%
    18:00 +20°C° 0 mm 2 mps 625 mmHg 45%
    19:00 +19°C° 0 mm 1 mps 624 mmHg 51%
    20:00 +19°C° 0 mm 1 mps 625 mmHg 52%
    21:00 +18°C° 0 mm 1 mps 625 mmHg 52%
    22:00 +18°C° 0 mm 1 mps 625 mmHg 53%
    23:00 +18°C° 0 mm 1 mps 625 mmHg 54%

    31 May, Wednesday

    Time Temperature Precipitation Wind Pressure Humidity
    00:00 +18°C° 0 mm 1 mps 625 mmHg 55%
    01:00 +18°C° 0 mm 1 mps 625 mmHg 56%
    02:00 +16°C° 0 mm 1 mps 624 mmHg 61%
    03:00 +14°C° 0 mm 1 mps 624 mmHg 65%
    04:00 +13°C° 0 mm 2 mps 623 mmHg 70%
    05:00 +13°C° 0 mm 2 mps 624 mmHg 70%
    06:00 +14°C° 0 mm 2 mps 624 mmHg 69%
    07:00 +14°C° 0 mm 2 mps 625 mmHg 69%
    08:00 +17°C° 0 mm 2 mps 626 mmHg 59%
    09:00 +19°C° 0 mm 3 mps 627 mmHg 49%
    10:00 +22°C° 0 mm 4 mps 628 mmHg 38%
    11:00 +24°C° 0 mm 3 mps 627 mmHg 36%
    12:00 +25°C° 0 mm 3 mps 627 mmHg 33%
    13:00 +26°C° 0 mm 2 mps 627 mmHg 30%
    14:00 +26°C° 0 mm 2 mps 626 mmHg 31%
    15:00 +26°C° 0 mm 2 mps 626 mmHg 32%
    16:00 +25°C° 0 mm 2 mps 625 mmHg 34%
    17:00 +23°C° 0 mm 2 mps 625 mmHg 38%
    18:00 +20°C° 0 mm 2 mps 625 mmHg 43%
    19:00 +18°C° 0 mm 2 mps 625 mmHg 47%
    20:00 +17°C° 0 mm 2 mps 625 mmHg 49%
    21:00 +16°C° 0 mm 2 mps 624 mmHg 51%
    22:00 +15°C° 0 mm 2 mps 624 mmHg 53%
    23:00 +14°C° 0 mm 2 mps 624 mmHg 56%

    1 June, Thursday

    Time Temperature Precipitation Wind Pressure Humidity
    00:00 +13°C° 0 mm 1 mps 623 mmHg 59%
    01:00 +12°C° 0 mm 1 mps 623 mmHg 61%
    02:00 +11°C° 0 mm 1 mps 623 mmHg 64%
    03:00 +11°C° 0 mm 1 mps 622 mmHg 66%
    04:00 +10°C° 0 mm 1 mps 622 mmHg 69%
    05:00 +11°C° 0 mm 1 mps 623 mmHg 68%
    06:00 +12°C° 0 mm 1 mps 624 mmHg 67%
    07:00 +12°C° 0 mm 1 mps 625 mmHg 66%
    08:00 +15°C° 0 mm 2 mps 626 mmHg 56%
    09:00 +18°C° 0 mm 3 mps 626 mmHg 46%
    10:00 +21°C° 0 mm 4 mps 627 mmHg 35%
    11:00 +22°C° 0 mm 3 mps 627 mmHg 32%
    12:00 +24°C° 0 mm 3 mps 627 mmHg 29%
    13:00 +26°C° 0 mm 2 mps 626 mmHg 26%
    14:00 +25°C° 0 mm 2 mps 626 mmHg 26%
    15:00 +25°C° 0 mm 2 mps 625 mmHg 26%
    16:00 +25°C° 0 mm 2 mps 625 mmHg 27%
    17:00 +21°C° 0 mm 2 mps 624 mmHg 33%
    18:00 +17°C° 0 mm 2 mps 623 mmHg 40%
    19:00 +14°C° 0 mm 2 mps 623 mmHg 47%
    20:00 +13°C° 0 mm 2 mps 623 mmHg 49%
    21:00 +13°C° 0 mm 2 mps 623 mmHg 51%
    22:00 +12°C° 0 mm 2 mps 623 mmHg 54%
    23:00 +11°C° 0 mm 1 mps 623 mmHg 58%

    2 June, Friday

    Time Temperature Precipitation Wind Pressure Humidity
    00:00 +11°C° 0 mm 1 mps 622 mmHg 62%
    01:00 +10°C° 0 mm 1 mps 622 mmHg 67%
    02:00 +10°C° 0 mm 1 mps 622 mmHg 70%
    03:00 +9°C° 0 mm 1 mps 621 mmHg 73%
    04:00 +9°C° 0 mm 1 mps 621 mmHg 76%
    05:00 +10°C° 0 mm 1 mps 622 mmHg 73%
    06:00 +11°C° 0 mm 1 mps 623 mmHg 70%
    07:00 +12°C° 0 mm 1 mps 624 mmHg 67%
    08:00 +15°C° 0 mm 1 mps 625 mmHg 56%
    09:00 +18°C° 0 mm 2 mps 626 mmHg 45%
    10:00 +21°C° 0 mm 3 mps 627 mmHg 34%
    11:00 +24°C° 0 mm 2 mps 627 mmHg 31%
    12:00 +26°C° 0 mm 1 mps 626 mmHg 27%
    13:00 +27°C° 0 mm 1 mps 626 mmHg 24%
    14:00 +26°C° 0 mm 1 mps 626 mmHg 25%
    15:00 +26°C° 0 mm 1 mps 625 mmHg 25%
    16:00 +25°C° 0 mm 1 mps 625 mmHg 26%
    17:00 +22°C° 0 mm 1 mps 624 mmHg 34%
    18:00 +18°C° 0 mm 1 mps 623 mmHg 41%
    19:00 +13°C° 0 mm 1 mps 622 mmHg 49%
    20:00 +13°C° 0 mm 1 mps 622 mmHg 54%
    21:00 +12°C° 0 mm 1 mps 622 mmHg 58%
    22:00 +11°C° 0 mm 1 mps 622 mmHg 62%
    23:00 +11°C° 0 mm 1 mps 621 mmHg 63%
    Show more